sat.trackr.live / text

‹ back to catalog

STARLINK-30933

NORAD 58410 · 2023-180J

PAYLOAD ACTIVE UNKNOWN

§ Identity

Operator
Country
US
Launch date
2023-11-22
Launch site
AFETR
Launch vehicle
Mass (kg)
RCS (m²)

Purposes: comms

External: N2YO · Heavens-Above · Gunter

§ Orbital elements

Epoch: 2026-05-25T03:38:05.788032Z

Period
94.27 min
Inclination
43.0010°
Eccentricity
0.0001278
Mean motion
15.27581280 rev/d
Perigee alt
482.2 km
Apogee alt
483.9 km
Semi-major
6,861.2 km
B*
4.4922e-5
RAAN
194.9286°
Arg perigee
268.4944°
Mean anomaly
91.5761°
Rev number
14,103

§ Raw data

STARLINK-309331 58410U 23180J   26145.15145588  .00000974  00000+0  44922-4 0  99912 58410  43.0010 194.9286 0001278 268.4944  91.5761 15.27581280141039

JSON: /api/v1/satellites/58410 · /tle

For live sub-satellite position, see the globe view (requires WebGL).

§ Visibility from observer

Set your observer location to see the next 7 days of passes ≥ 10°. The values pass through the URL so the page stays shareable.

No JS? Fill the form by hand. The geolocation button needs JavaScript.